This demonstration page uses our WeatherBlox Daily Observations layout. Learn more.

Left ArrowRight Arrow

Hourly Observations for April 26, 2019

Temp ( °F °C ) Dew Point ( °F °C ) Humidity (%) Winds ( mph kmh ) Pressure ( in mb ) Visibility ( mi km ) Precip ( " mm )
12:53 am 00:53 Mostly Cloudy 61 16.1 59 15 93 93 SSW 3 6 29.81 1010 10 16 0.00 0.00
1:53 am 01:53 Cloudy 61 16.1 59 15 93 93 WSW 5 7 29.80 1009 10 16 0.00 0.03
2:53 am 02:53 Cloudy 61 16.1 59 15 93 93 S 3 6 29.76 1008 10 16 0.00 0.00
3:53 am 03:53 Cloudy 60 15.6 59 15 96 96 SW 5 7 29.75 1008 10 16 0.00 0.03
4:53 am 04:53 Cloudy with Light Rain 59 15 59 15 100 100 SSW 5 7 29.74 1007 10 16 0.01 0.25
5:13 am 05:13 Cloudy 60 15.6 59 15 96 96 SW 6 9 29.76 1008 10 16 0.00 0.03
5:53 am 05:53 Cloudy 60 15.6 60 15.6 100 100 SSW 6 9 29.74 1007 10 16 0.00 0.03
6:46 am 06:46 Cloudy 60 15.6 60 15.6 100 100 SW 5 7 29.76 1008 10 16 0.00 0.00
6:53 am 06:53 Cloudy 60 15.6 60 15.6 100 100 SSW 7 11 29.75 1007 10 16 0.00 0.00
7:53 am 07:53 Cloudy 61 16.1 61 16.1 100 100 SW 7 11 29.77 1008 10 16 0.00 0.00
8:17 am 08:17 Partly Cloudy 62 16.7 60 15.6 93 93 W 6 9 29.78 1008 10 16 0.00 0.00
8:53 am 08:53 Sunny 63 17.2 59 15 87 87 WNW 10 17 29.78 1009 10 16 0.00 0.00
9:53 am 09:53 Mostly Cloudy 66 18.9 59 15 78 78 W 12 19 29.79 1009 10 16 0.00 0.00
10:53 am 10:53 Mostly Cloudy 66 18.9 55 12.8 68 68 WNW 20 31 29.83 1010 10 16 0.00 0.00
11:53 am 11:53 Partly Cloudy 68 20 53 11.7 59 59 NW 20 31 29.85 1011 10 16 0.00 0.00
12:53 pm 12:53 Sunny 71 21.7 51 10.6 49 49 WNW 20 31 29.85 1011 10 16 0.00 0.00
1:53 pm 13:53 Partly Cloudy 71 21.7 48 8.9 44 44 NW 17 28 29.85 1011 10 16 0.00 0.00
2:53 pm 14:53 Sunny 72 22.2 43 6.1 35 35 NNW 15 24 29.85 1011 10 16 0.00 0.00
3:53 pm 15:53 Sunny 72 22.2 37 2.8 28 28 NNW 21 33 29.86 1011 10 16 0.00 0.00
4:53 pm 16:53 Sunny 73 22.8 38 3.3 28 28 NNW 18 30 29.85 1011 10 16 0.00 0.00
5:53 pm 17:53 Sunny 73 22.8 38 3.3 28 28 NW 12 19 29.86 1011 10 16 0.00 0.00
6:53 pm 18:53 Sunny 72 22.2 36 2.2 27 27 NW 12 19 29.88 1012 10 16 0.00 0.00
7:53 pm 19:53 Sunny 69 20.6 37 2.8 31 31 WNW 7 11 29.89 1012 10 16 0.00 0.00
8:53 pm 20:53 Clear 66 18.9 39 3.9 37 37 W 8 13 29.92 1013 10 16 0.00 0.00
9:53 pm 21:53 Clear 64 17.8 39 3.9 40 40 W 6 9 29.95 1014 10 16 0.00 0.00
10:53 pm 22:53 Clear 61 16.1 39 3.9 44 44 WNW 6 9 29.97 1015 10 16 0.00 0.00
11:53 pm 23:53 Clear 59 15 39 3.9 48 48 W 5 7 29.98 1015 10 16 0.00 0.00

Powered by AerisWeather